Location: ?????????
(55.6553°N, 38.9075°E)
Time: 08:46:49
(UTC+00:00)

Cosmos 2297 - Pass Details

Date: 18 October 2019
Orbit: 834 x 860 km, 71.0° (Epoch: 21 November)

Event Time Altitude Azimuth Distance (km) Brightness Sun altitude
Rises 02:43:17 0° 324° (NW) 3,448 6.5 -11.5°
Reaches altitude 10° 02:45:48 10° 320° (NW) 2,508 5.8 -11.2°
Maximum altitude 02:51:22 52° 246° (WSW) 1,065 3.9 -10.4°
Drops below altitude 10° 02:56:54 10° 171° (S) 2,492 6.3 -9.6°
Sets 02:59:24 0° 167° (SSE) 3,422 7.1 -9.3°
